[[{"header":{"parameterUnit":"m.s-1","parameterCategory":1,"la1":30.2991,"la2":30.254,"lo1":-89.0895,"lo2":-89.0444,"dy":0.0017,"dx":0.0017,"nx":28,"ny":28,"refTime":"2025-11-19T09:00:00:Z","depth":0,"parameterNumber":2,"parameterNumberName":"U-component_of_WINDS"},"data":[0,0,0,0,0,0,0,0,0,0,0,0,0,0,0,0,0,0,0,0,0,0,0,0,0,0,0,0,0,0,0,0,0,0,0,0,0,0,0,0,0,0,0,0,0,0,0,0,0,0,0,0,0,0,0,0,0,0,-2.3934,-2.3935,0,-2.4009,-2.4009,-2.401,-2.4014,-2.4013,-2.4012,-2.4011,-2.4088,-2.4091,-2.4094,0,0,0,0,0,0,0,0,0,0,0,0,0,-2.3796,-2.3799,-2.3934,-2.3935,-2.3936,-2.4008,-2.4009,-2.401,-2.4014,-2.4013,-2.4012,-2.4011,-2.4087,-2.4091,-2.4094,0,0,0,0,0,0,0,0,0,0,0,0,0,-2.3862,-2.38,-2.3934,-2.3946,-2.3948,-2.4008,-2.401,-2.4011,-2.4014,-2.4013,-2.4011,-2.401,-2.4086,-2.409,-2.4095,-2.4147,0,0,-2.4108,-2.411,0,0,0,0,0,0,0,0,-2.3858,-2.3867,-2.3944,-2.3946,-2.3948,-2.4001,-2.3989,-2.4057,-2.4014,-2.3989,-2.4011,-2.401,-2.406,-2.4066,-2.4083,-2.4151,-2.4154,-2.4108,-2.4111,-2.4113,-2.4114,0,0,0,0,0,0,0,-2.3854,-2.3864,-2.3964,-2.3945,-2.3947,-2.3949,-2.3957,-2.4002,-2.4031,-2.3991,-2.3992,-2.4,-2.4061,-2.4079,-2.4085,-2.4155,-2.4108,-2.4112,-2.4114,-2.4116,-2.4271,-2.4273,0,0,0,0,0,0,-2.3847,-2.386,-2.3961,-2.3966,-2.3899,-2.3952,-2.3961,-2.3985,-2.4031,-2.4036,-2.4001,-2.4,-2.4073,-2.408,-2.4088,-2.4153,-2.4112,-2.4117,-2.4119,-2.427,-2.4271,-2.4273,0,0,0,0,0,0,-2.3844,-2.3856,-2.3958,-2.3913,-2.3926,-2.3956,-2.3983,-2.3987,-2.4005,-2.4038,-2.4044,-2.4014,-2.4072,-2.4082,-2.4133,-2.4155,-2.4118,-2.4122,-2.4268,-2.427,-2.4272,-2.4283,0,0,0,0,0,0,-2.384,-2.3854,-2.3874,-2.3913,-2.3929,-2.4001,-2.3984,-2.3989,-2.4013,-2.4012,-2.4052,-2.4057,-2.4072,-2.4126,-2.4137,-2.4161,-2.4126,-2.4266,-2.4269,-2.4272,-2.428,-2.4285,-2.4289,0,0,0,0,0,-2.3835,-2.3874,-2.3875,-2.3887,-2.3954,-2.4002,-2.4011,-2.4026,-2.4014,-2.4035,-2.4056,-2.4056,-2.4152,-2.4131,-2.4144,-2.4169,-2.4264,-2.4268,-2.4271,-2.4278,-2.4284,-2.4289,0,0,0,0,0,0,-2.3837,-2.388,-2.3881,-2.3935,-2.3965,-2.4003,-2.4029,-2.4032,-2.4066,-2.4064,-2.4082,-2.4091,-2.4141,-2.4161,-2.4137,-2.4223,-2.4207,-2.4213,-2.4208,-2.4214,-2.4218,-2.4212,-2.4129,0,0,0,0,0,-2.3844,-2.3879,-2.3915,-2.3958,-2.3974,-2.3999,-2.402,-2.403,-2.4062,-2.4075,-2.41,-2.4131,-2.4169,-2.4192,-2.4229,-2.4284,-2.4293,-2.4308,-2.4312,-2.4315,-2.432,-2.4351,-2.4358,-2.4284,-2.4284,-2.4284,0,0,-2.3858,-2.3886,-2.3907,-2.396,-2.3984,-2.4021,-2.4009,-2.4048,-2.4076,-2.4081,-2.413,-2.415,-2.4186,-2.424,-2.4264,-2.4257,-2.4342,-2.432,-2.4322,-2.4325,-2.4355,-2.4362,-2.4368,-2.4287,-2.4286,-2.4286,0,0,-2.3902,-2.3927,-2.3966,-2.3991,-2.4028,-2.4045,-2.4054,-2.4093,-2.4106,-2.4156,-2.416,-2.4194,-2.4257,-2.4283,-2.4305,-2.4361,-2.4362,-2.4372,-2.4394,-2.4424,-2.443,-2.4435,-2.4454,-2.4461,-2.4377,-2.4377,-2.4377,0,-2.3915,-2.3969,-2.3986,-2.4025,-2.4048,-2.4055,-2.4095,-2.4118,-2.4166,-2.4182,-2.4173,-2.4254,-2.4279,-2.4338,-2.4352,-2.437,-2.4381,-2.4366,-2.4427,-2.4433,-2.4438,-2.4457,-2.4464,-2.4378,-2.4378,-2.4378,-2.4377,0,-2.3983,-2.4021,-2.4049,-2.4094,-2.4121,-2.416,-2.4183,-2.4208,-2.4215,-2.4233,-2.4285,-2.4315,-2.4358,-2.4373,-2.4381,-2.4434,-2.4428,-2.4424,-2.4407,-2.4445,-2.4463,-2.4471,-2.4379,-2.4379,-2.4378,-2.4378,0,0,-2.4029,-2.4084,-2.4093,-2.4114,-2.4157,-2.4187,-2.4227,-2.4268,-2.429,-2.4323,-2.4357,-2.4412,-2.4408,-2.4432,-2.4443,-2.447,-2.4512,-2.4462,-2.4463,-2.4469,-2.4572,-2.4574,-2.4582,-2.4514,-2.4515,-2.4516,-2.4569,0,-2.4077,-2.4148,-2.4164,-2.4225,-2.4261,-2.4268,-2.4304,-2.4334,-2.4352,-2.4386,-2.4406,-2.4444,-2.4437,-2.4451,-2.4478,-2.4501,-2.4532,-2.4498,-2.4545,-2.4547,-2.4534,-2.4592,-2.4594,-2.4642,-2.4576,-2.4577,-2.4578,0,-2.4142,-2.4176,-2.4241,-2.4279,-2.4295,-2.4326,-2.4365,-2.4397,-2.4432,-2.4444,-2.4472,-2.4481,-2.4524,-2.4507,-2.4566,-2.4542,-2.4563,-2.4578,-2.458,-2.4584,-2.4563,-2.4596,-2.4658,-2.4665,-2.4589,-2.4589,-2.4588,0,-2.4168,-2.423,-2.4277,-2.4295,-2.4341,-2.4363,-2.4383,-2.4417,-2.4441,-2.4476,-2.4492,-2.4532,-2.4554,-2.4585,-2.4605,-2.4591,-2.4663,-2.4647,-2.4673,-2.4673,-2.4687,-2.4685,-2.4752,-2.4702,-2.4702,-2.4702,-2.4702,0,-2.4219,-2.4258,-2.4289,-2.4318,-2.4362,-2.4381,-2.4425,-2.4445,-2.4476,-2.4509,-2.4519,-2.455,-2.4574,-2.4609,-2.4625,-2.4672,-2.4682,-2.4693,-2.4696,-2.4691,-2.4689,-2.4704,-2.47,-2.4704,-2.4704,-2.4703,-2.4703,0,-2.4254,-2.4277,-2.4328,-2.4368,-2.4379,-2.441,-2.4444,-2.4473,-2.4492,-2.4534,-2.4545,-2.4576,-2.4617,-2.464,-2.4693,-2.4703,-2.4755,-2.4758,-2.4743,-2.4744,-2.4769,-2.4766,-2.4845,-2.4857,-2.4801,-2.4802,-2.4802,0,-2.4285,-2.4315,-2.4358,-2.4381,-2.4401,-2.4438,-2.4463,-2.4484,-2.4509,-2.4552,-2.4576,-2.4618,-2.4652,-2.4718,-2.4746,-2.4786,-2.4789,-2.4814,-2.4795,-2.4789,-2.4788,-2.4785,-2.4788,-2.4817,-2.4817,-2.4818,-2.4818,0,-2.4336,-2.4346,-2.4381,-2.442,-2.445,-2.4482,-2.4514,-2.4532,-2.4558,-2.4587,-2.4629,-2.4656,-2.471,-2.4751,-2.4794,-2.4816,-2.4821,-2.4824,-2.4832,-2.4826,-2.4816,-2.4821,-2.4751,-2.4822,-2.4821,-2.4821,-2.4821,-2.4821,-2.4369,-2.4396,-2.4431,-2.447,-2.4496,-2.4526,-2.4555,-2.4578,-2.4614,-2.4658,-2.4669,-2.4714,-2.4749,-2.4807,-2.483,-2.4866,-2.4861,-2.4873,-2.4876,-2.4878,-2.4878,-2.4812,-2.4874,-2.4874,-2.4874,-2.4874,-2.4874,0,-2.442,-2.4443,-2.4479,-2.4523,-2.4554,-2.4557,-2.4593,-2.4619,-2.4658,-2.469,-2.4724,-2.4773,-2.4814,-2.4845,-2.4887,-2.491,-2.4913,-2.492,-2.4918,-2.4923,-2.4881,-2.4869,-2.4916,-2.4916,-2.4916,-2.4916,-2.4916,-2.4916,-2.445,-2.4496,-2.4511,-2.457,-2.4593,-2.4637,-2.4657,-2.4685,-2.4711,-2.4765,-2.4799,-2.4819,-2.4851,-2.4896,-2.4933,-2.4942,-2.4956,-2.4962,-2.4971,-2.493,-2.4926,-2.4921,-2.491,-2.4966,-2.4966,-2.501,-2.501,-2.501]},{"header":{"parameterUnit":"m.s-1","parameterCategory":1,"la1":30.2991,"la2":30.254,"lo1":-89.0895,"lo2":-89.0444,"dy":0.0017,"dx":0.0017,"nx":28,"ny":28,"refTime":"2025-11-19T09:00:00:Z","depth":0,"parameterNumber":3,"parameterNumberName":"V-component_of_WINDS"},"data":[0,0,0,0,0,0,0,0,0,0,0,0,0,0,0,0,0,0,0,0,0,0,0,0,0,0,0,0,0,0,0,0,0,0,0,0,0,0,0,0,0,0,0,0,0,0,0,0,0,0,0,0,0,0,0,0,0,0,2.6925,2.6925,0,2.6941,2.6942,2.6942,2.6897,2.6895,2.6894,2.6893,2.691,2.6911,2.6913,0,0,0,0,0,0,0,0,0,0,0,0,0,2.6857,2.6858,2.6925,2.6925,2.6925,2.6941,2.6942,2.6942,2.6897,2.6895,2.6894,2.6892,2.6909,2.6911,2.6913,0,0,0,0,0,0,0,0,0,0,0,0,0,2.6881,2.6859,2.6925,2.6905,2.6903,2.6941,2.6942,2.6942,2.6897,2.6895,2.6893,2.6891,2.6908,2.6911,2.6914,2.6972,0,0,2.6922,2.6923,0,0,0,0,0,0,0,0,2.688,2.6884,2.6907,2.6906,2.6904,2.6915,2.6924,2.6952,2.6898,2.69,2.6893,2.689,2.6913,2.6915,2.6923,2.6973,2.6974,2.6922,2.6924,2.6925,2.6925,0,0,0,0,0,0,0,2.6878,2.6883,2.6931,2.6908,2.6906,2.6896,2.6897,2.6929,2.6918,2.6899,2.6896,2.6899,2.6912,2.6921,2.6923,2.6974,2.6922,2.6924,2.6926,2.6927,2.7076,2.7079,0,0,0,0,0,0,2.6879,2.6882,2.6931,2.6932,2.6887,2.6899,2.69,2.6914,2.6917,2.6916,2.69,2.6896,2.6917,2.692,2.6924,2.6994,2.6925,2.6927,2.6929,2.7074,2.7077,2.7079,0,0,0,0,0,0,2.6878,2.6884,2.693,2.6906,2.6911,2.6902,2.6918,2.6915,2.6924,2.6918,2.6916,2.6911,2.6916,2.692,2.6961,2.6994,2.6928,2.6931,2.7071,2.7075,2.7078,2.7136,0,0,0,0,0,0,2.6876,2.6883,2.6905,2.6907,2.6913,2.6967,2.692,2.6917,2.6928,2.6923,2.6928,2.6927,2.6914,2.6957,2.6964,2.6997,2.6933,2.7068,2.7073,2.7077,2.7131,2.7141,2.7149,0,0,0,0,0,2.6874,2.6919,2.6906,2.6912,2.6939,2.6969,2.6972,2.6957,2.6931,2.6953,2.695,2.6926,2.699,2.6962,2.6969,2.7003,2.7066,2.7071,2.7077,2.7126,2.7139,2.7149,0,0,0,0,0,0,2.6921,2.6919,2.6904,2.6952,2.6961,2.6961,2.6988,2.697,2.6986,2.6981,2.6961,2.6963,2.7009,2.701,2.6979,2.7062,2.7024,2.7031,2.7059,2.7071,2.708,2.7079,2.6935,0,0,0,0,0,2.6937,2.6961,2.6958,2.7001,2.7006,2.6997,2.7009,2.6997,2.7005,2.7009,2.7009,2.7018,2.7041,2.7056,2.7075,2.7131,2.7133,2.7158,2.7167,2.7175,2.7181,2.7214,2.7226,2.7097,2.7097,2.7097,0,0,2.697,2.6972,2.6988,2.7011,2.7016,2.7043,2.7,2.7029,2.7049,2.7013,2.7053,2.7054,2.7063,2.7113,2.7134,2.7115,2.7218,2.7182,2.7188,2.719,2.7221,2.7233,2.7244,2.7101,2.71,2.7099,0,0,2.7044,2.7048,2.7085,2.7092,2.7101,2.7095,2.7105,2.7108,2.7108,2.7147,2.7122,2.7146,2.7184,2.7193,2.7202,2.7284,2.7264,2.7291,2.7339,2.7371,2.7381,2.739,2.7422,2.7433,2.7297,2.7297,2.7297,0,2.7084,2.7123,2.7106,2.7138,2.715,2.712,2.7159,2.7166,2.7182,2.7191,2.7169,2.7219,2.7223,2.7275,2.7296,2.7304,2.7315,2.729,2.7381,2.739,2.7398,2.7428,2.744,2.7301,2.73,2.73,2.73,0,2.7173,2.72,2.7229,2.7247,2.7261,2.7296,2.7287,2.7304,2.7291,2.7288,2.7331,2.7335,2.7357,2.7368,2.7355,2.742,2.7408,2.7384,2.7346,2.7414,2.7442,2.7453,2.7306,2.7304,2.7303,2.7303,0,0,2.7276,2.7286,2.7297,2.7306,2.7315,2.7336,2.7371,2.7393,2.741,2.7422,2.7452,2.7487,2.7466,2.7477,2.7465,2.7493,2.7561,2.7466,2.7466,2.7485,2.7636,2.7655,2.7668,2.7548,2.755,2.7551,2.7635,0,2.7351,2.7411,2.7399,2.7458,2.7484,2.7458,2.7489,2.7499,2.7498,2.7521,2.7519,2.7545,2.7514,2.7521,2.7547,2.7547,2.7591,2.7541,2.7577,2.7578,2.7576,2.7682,2.7701,2.778,2.7646,2.7648,2.7649,0,2.7446,2.7464,2.7526,2.7535,2.7545,2.7573,2.7594,2.7616,2.7628,2.7625,2.764,2.7624,2.766,2.7621,2.7673,2.7639,2.7653,2.7656,2.7658,2.7662,2.7618,2.769,2.7805,2.7818,2.7665,2.7664,2.7663,0,2.7518,2.7557,2.76,2.7608,2.7618,2.7639,2.7645,2.7654,2.767,2.7688,2.7698,2.7721,2.7733,2.7752,2.7743,2.7715,2.7797,2.7757,2.7798,2.7798,2.7816,2.7816,2.7937,2.7824,2.7823,2.7823,2.7823,0,2.7603,2.7643,2.7633,2.7659,2.7704,2.769,2.7735,2.7737,2.7747,2.7775,2.7753,2.778,2.7766,2.7793,2.7786,2.7832,2.7837,2.7837,2.7835,2.784,2.784,2.7849,2.7844,2.7826,2.7826,2.7825,2.7824,0,2.769,2.7685,2.7731,2.7738,2.7741,2.7774,2.778,2.7806,2.7804,2.784,2.7847,2.7845,2.7875,2.7868,2.79,2.7897,2.7954,2.7944,2.795,2.7949,2.7991,2.7988,2.8123,2.8142,2.8015,2.8016,2.8017,0,2.7746,2.7776,2.7788,2.7805,2.7813,2.784,2.7856,2.7845,2.7863,2.7881,2.7905,2.7934,2.7956,2.8005,2.8007,2.8033,2.8024,2.807,2.8028,2.8033,2.8028,2.8027,2.8031,2.8079,2.808,2.8082,2.8083,0,2.7846,2.7843,2.7867,2.7891,2.7911,2.7929,2.7945,2.7961,2.7951,2.7973,2.8004,2.8021,2.8056,2.8085,2.811,2.8116,2.8099,2.8096,2.8107,2.8113,2.8116,2.8117,2.7975,2.8093,2.8092,2.8091,2.8091,2.809,2.7921,2.7948,2.7961,2.7989,2.8001,2.8017,2.8043,2.8045,2.8071,2.8098,2.809,2.8126,2.8141,2.8172,2.8182,2.8211,2.8194,2.8209,2.8213,2.8218,2.8224,2.8111,2.8215,2.8214,2.8214,2.8214,2.8214,0,2.8022,2.803,2.8056,2.808,2.8103,2.8085,2.8103,2.8124,2.8156,2.8171,2.8194,2.8231,2.826,2.8265,2.8293,2.8316,2.8309,2.8324,2.8323,2.8325,2.8236,2.8225,2.8329,2.8329,2.8329,2.8329,2.8329,2.8329,2.8077,2.8123,2.8122,2.8174,2.8181,2.8217,2.8229,2.8245,2.8257,2.83,2.8324,2.8327,2.8339,2.8368,2.8395,2.8396,2.8408,2.8427,2.8425,2.8342,2.8331,2.832,2.8309,2.8429,2.8429,2.8511,2.8512,2.8513]}]]